Weather History for Tomahawk, WI

Change the Weather History Date:

Wednesday, October 3, 2012

  Actual Average (KRHI) Record (KRHI)
Temperature  
Mean Temperature 52 °F 48 °F  
Max Temperature 71 °F 59 °F 81 °F (1922)
Min Temperature 32 °F 38 °F 21 °F (1952)
Degree Days  
Heating Degree Days 14 17  
Month to date heating degree days 50  
Since 1 July heating degree days 482  
Cooling Degree Days 0 0  
Month to date cooling degree days 0  
Year to date cooling degree days 259  
Growing Degree Days 2 (Base 50)    
Moisture  
Dew Point 39 °F    
Average Humidity 74    
Maximum Humidity 100    
Minimum Humidity 33    
Precipitation  
Precipitation 0.00 in 0.13 in 1.25 in (1911)
Month to date precipitation 0.37  
Year to date precipitation 25.45  
Snow  
Snow 0.00 in - 0.00 in ()
Month to date snowfall  
Since 1 July snowfall  
Since 1 September snowfall  
Snow Depth -    
Sea Level Pressure  
Sea Level Pressure 29.96 in    
Wind  
Wind Speed 0 mph (South)    
Max Wind Speed 7 mph    
Max Gust Speed -    
Visibility 8 miles    
Events Fog    
T = Trace of Precipitation, MM = Missing Value Source: NWS Daily Summary

Daily Weather History Graph

Daily Weather History Graph

Search for Another Location

Airport:

Trip Planner

Search our weather history database for the weather conditions in past years. The results will help you decide how hot, cold, wet, or windy it might be!

Date:

Astronomy

Oct. 03, 2012 Rise Set
Actual Time 7:00 AM CDT 6:34 PM CDT
Civil Twilight 6:31 AM CDT 7:04 PM CDT
Nautical Twilight 5:56 AM CDT 7:38 PM CDT
Astronomical Twilight 5:22 AM CDT 8:13 PM CDT
Moon 8:14 PM CDT (10/3) 10:35 AM CDT (10/3)
Length of Visible Light 12h 33m
Length of Day
11h 34m
Waning Gibbous, 88% of the Moon is Illuminated
Oct 3
Waning Gibbous
Oct 8
Last Quarter
Oct 15
New
Oct 21
First Quarter
Oct 29
Full

Hourly Weather History & Observations

Time (CDT) Temp. Dew Point Humidity Pressure Visibility Wind Dir Wind Speed Gust Speed Precip Events Conditions
12:15 AM 33.8 °F 30.2 °F 87% 29.94 in 10.0 mi Calm Calm - N/A   Clear
12:35 AM 37.4 °F 33.8 °F 87% 29.94 in 10.0 mi Calm Calm - N/A   Clear
12:55 AM 33.8 °F 32.0 °F 93% 29.95 in 10.0 mi Calm Calm - N/A   Clear
1:15 AM 33.8 °F 32.0 °F 93% 29.95 in 10.0 mi Calm Calm - N/A   Clear
1:35 AM 33.8 °F 32.0 °F 93% 29.96 in 10.0 mi Calm Calm - N/A   Clear
1:55 AM 32.0 °F 30.2 °F 93% 29.96 in 10.0 mi Calm Calm - N/A   Clear
2:15 AM 32.0 °F 32.0 °F 100% 29.96 in 10.0 mi Calm Calm - N/A   Clear
2:35 AM 32.0 °F 30.2 °F 93% 29.96 in 10.0 mi Calm Calm - N/A   Clear
2:55 AM 32.0 °F 32.0 °F 100% 29.96 in 7.0 mi Calm Calm - N/A   Clear
3:15 AM 32.0 °F 30.2 °F 93% 29.96 in 10.0 mi Calm Calm - N/A   Clear
3:35 AM 32.0 °F 30.2 °F 93% 29.96 in 0.2 mi Calm Calm - N/A Fog Light Freezing Fog
3:55 AM 32.0 °F 30.2 °F 93% 29.97 in 0.2 mi Calm Calm - N/A Fog Light Freezing Fog
4:15 AM 32.0 °F 30.2 °F 93% 29.97 in 0.8 mi Calm Calm - N/A   Overcast
4:35 AM 32.0 °F 32.0 °F 100% 29.97 in 0.5 mi Calm Calm - N/A Fog Light Freezing Fog
4:55 AM 32.0 °F 32.0 °F 100% 29.97 in 0.2 mi Calm Calm - N/A Fog Fog
5:15 AM 32.0 °F 32.0 °F 100% 29.97 in 0.2 mi Calm Calm - N/A Fog Fog
5:35 AM 32.0 °F 32.0 °F 100% 29.97 in 0.2 mi Calm Calm - N/A Fog Fog
5:55 AM 32.0 °F 32.0 °F 100% 29.97 in 0.2 mi Calm Calm - N/A Fog Fog
6:15 AM 32.0 °F 32.0 °F 100% 29.97 in 0.2 mi Calm Calm - N/A Fog Fog
6:35 AM 33.8 °F 32.0 °F 93% 29.97 in 0.2 mi Calm Calm - N/A Fog Fog
6:55 AM 33.8 °F 33.8 °F 100% 29.97 in 0.2 mi Calm Calm - N/A Fog Fog
7:15 AM 33.8 °F 33.8 °F 100% 29.97 in 0.2 mi Calm Calm - N/A Fog Fog
7:35 AM 35.6 °F 33.8 °F 93% 29.97 in 0.2 mi Calm Calm - N/A Fog Fog
7:55 AM 35.6 °F 35.6 °F 100% 29.97 in 0.2 mi Calm Calm - N/A Fog Fog
8:15 AM 37.4 °F 37.4 °F 100% 29.98 in 0.2 mi Calm Calm - N/A Fog Fog
8:35 AM 41.0 °F 41.0 °F 100% 29.98 in 0.2 mi Calm Calm - N/A Fog Fog
8:55 AM 42.8 °F 42.8 °F 100% 29.99 in 0.5 mi Calm Calm - N/A Fog Fog
9:15 AM 46.4 °F 44.6 °F 93% 30.00 in 4.0 mi Calm Calm - N/A   Mostly Cloudy
9:35 AM 48.2 °F 46.4 °F 93% 29.99 in 7.0 mi Calm Calm - N/A   Scattered Clouds
9:55 AM 50.0 °F 50.0 °F 100% 30.00 in 10.0 mi Calm Calm - N/A   Clear
10:15 AM 53.6 °F 51.8 °F 94% 29.99 in 10.0 mi SSW 3.5 mph - N/A   Clear
10:35 AM 55.4 °F 53.6 °F 94% 29.99 in 10.0 mi SSW 4.6 mph - N/A   Clear
10:55 AM 59.0 °F 55.4 °F 88% 29.99 in 10.0 mi SW 3.5 mph - N/A   Clear
11:15 AM 62.6 °F 50.0 °F 63% 29.98 in 10.0 mi WSW 4.6 mph - N/A   Clear
11:35 AM 64.4 °F 48.2 °F 56% 29.98 in 10.0 mi SSW 3.5 mph - N/A   Clear
11:55 AM 64.4 °F 46.4 °F 52% 29.97 in 10.0 mi Calm Calm - N/A   Clear
12:15 PM 68.0 °F 46.4 °F 46% 29.97 in 10.0 mi Calm Calm - N/A   Clear
12:35 PM 68.0 °F 42.8 °F 40% 29.96 in 10.0 mi Calm Calm - N/A   Clear
12:55 PM 68.0 °F 42.8 °F 40% 29.95 in 10.0 mi Calm Calm - N/A   Clear
1:15 PM 68.0 °F 42.8 °F 40% 29.95 in 10.0 mi SSW 3.5 mph - N/A   Clear
1:35 PM 69.8 °F 42.8 °F 38% 29.94 in 10.0 mi SSE 3.5 mph - N/A   Clear
1:55 PM 69.8 °F 42.8 °F 38% 29.94 in 10.0 mi Calm Calm - N/A   Clear
2:15 PM 69.8 °F 41.0 °F 35% 29.93 in 10.0 mi Calm Calm - N/A   Clear
2:35 PM 69.8 °F 41.0 °F 35% 29.93 in 10.0 mi Calm Calm - N/A   Clear
2:55 PM 69.8 °F 41.0 °F 35% 29.93 in 10.0 mi Calm Calm - N/A   Clear
3:15 PM 71.6 °F 41.0 °F 33% 29.92 in 10.0 mi Calm Calm - N/A   Clear
3:35 PM 71.6 °F 41.0 °F 33% 29.92 in 10.0 mi ESE 6.9 mph - N/A   Clear
3:55 PM 69.8 °F 41.0 °F 35% 29.92 in 10.0 mi South 3.5 mph - N/A   Clear
4:15 PM 71.6 °F 41.0 °F 33% 29.92 in 10.0 mi SSW 3.5 mph - N/A   Clear
4:35 PM 69.8 °F 39.2 °F 33% 29.92 in 10.0 mi Calm Calm - N/A   Clear
4:55 PM 69.8 °F 39.2 °F 33% 29.92 in 10.0 mi Calm Calm - N/A   Clear
5:15 PM 69.8 °F 41.0 °F 35% 29.93 in 10.0 mi SE 3.5 mph - N/A   Clear
5:35 PM 68.0 °F 41.0 °F 37% 29.93 in 10.0 mi Calm Calm - N/A   Clear
5:55 PM 66.2 °F 42.8 °F 43% 29.93 in 10.0 mi Calm Calm - N/A   Clear
6:15 PM 62.6 °F 42.8 °F 48% 29.94 in 10.0 mi Calm Calm - N/A   Clear
6:35 PM 60.8 °F 42.8 °F 52% 29.94 in 10.0 mi Calm Calm - N/A   Clear
6:55 PM 59.0 °F 42.8 °F 55% 29.94 in 10.0 mi Calm Calm - N/A   Clear
7:15 PM 57.2 °F 42.8 °F 59% 29.94 in 10.0 mi Calm Calm - N/A   Clear
7:35 PM 53.6 °F 41.0 °F 62% 29.95 in 10.0 mi Calm Calm - N/A   Clear
7:55 PM 53.6 °F 42.8 °F 67% 29.96 in 10.0 mi Calm Calm - N/A   Clear
8:15 PM 55.4 °F 42.8 °F 63% 29.96 in 10.0 mi Calm Calm - N/A   Clear
8:35 PM 53.6 °F 42.8 °F 67% 29.97 in 10.0 mi Calm Calm - N/A   Clear
8:55 PM 51.8 °F 42.8 °F 71% 29.97 in 10.0 mi Calm Calm - N/A   Clear
9:15 PM 50.0 °F 42.8 °F 76% 29.97 in 10.0 mi Calm Calm - N/A   Clear
9:35 PM 46.4 °F 41.0 °F 81% 29.96 in 10.0 mi Calm Calm - N/A   Clear
9:55 PM 44.6 °F 41.0 °F 87% 29.97 in 10.0 mi Calm Calm - N/A   Clear
10:15 PM 44.6 °F 39.2 °F 81% 29.97 in 10.0 mi Calm Calm - N/A   Clear
10:35 PM 42.8 °F 39.2 °F 87% 29.97 in 10.0 mi Calm Calm - N/A   Clear
10:55 PM 42.8 °F 39.2 °F 87% 29.97 in 10.0 mi Calm Calm - N/A   Clear
11:15 PM 42.8 °F 39.2 °F 87% 29.97 in 10.0 mi Calm Calm - N/A   Clear
11:35 PM 42.8 °F 39.2 °F 87% 29.97 in 10.0 mi Calm Calm - N/A   Clear
11:55 PM 41.0 °F 37.4 °F 87% 29.97 in 10.0 mi Calm Calm - N/A   Clear